TimeEDT,TemperatureF,Dew PointF,Humidity,Sea Level PressureIn,VisibilityMPH,Wind Direction,Wind SpeedMPH,Gust SpeedMPH,PrecipitationIn,Events,Conditions,WindDirDegrees,DateUTC
12:53 AM,80.1,73.0,79,29.93,10.0,Calm,Calm,-,N/A,,Clear,0,2012-10-21 04:53:00
1:53 AM,79.0,73.9,84,29.91,10.0,Calm,Calm,-,N/A,,Clear,0,2012-10-21 05:53:00
2:53 AM,79.0,73.0,82,29.90,10.0,Calm,Calm,-,N/A,,Clear,0,2012-10-21 06:53:00
3:53 AM,79.0,75.0,88,29.88,10.0,Calm,Calm,-,N/A,,Clear,0,2012-10-21 07:53:00
4:53 AM,79.0,73.9,84,29.88,10.0,North,3.5,-,N/A,,Clear,10,2012-10-21 08:53:00
5:53 AM,78.8,73.4,83,29.90,10.0,NNE,3.5,-,N/A,,Clear,20,2012-10-21 09:53:00
6:53 AM,79.0,73.9,84,29.91,10.0,North,3.5,-,N/A,,Clear,10,2012-10-21 10:53:00
7:53 AM,80.1,73.9,81,29.93,10.0,NE,4.6,-,N/A,,Clear,40,2012-10-21 11:53:00
8:53 AM,81.0,73.9,79,29.95,10.0,NE,6.9,-,N/A,,Partly Cloudy,50,2012-10-21 12:53:00
9:41 AM,82.4,75.2,79,29.96,10.0,NE,11.5,-,N/A,,Mostly Cloudy,40,2012-10-21 13:41:00
9:53 AM,82.9,73.9,74,29.97,10.0,ENE,9.2,16.1,N/A,,Mostly Cloudy,60,2012-10-21 13:53:00
10:05 AM,82.4,73.4,74,29.97,10.0,NE,11.5,-,N/A,,Partly Cloudy,50,2012-10-21 14:05:00
10:53 AM,82.0,75.0,79,29.98,10.0,NE,12.7,18.4,N/A,,Scattered Clouds,40,2012-10-21 14:53:00
11:53 AM,84.0,75.0,74,29.99,10.0,NE,11.5,-,N/A,,Mostly Cloudy,40,2012-10-21 15:53:00
12:13 PM,82.4,73.4,74,29.99,10.0,NE,10.4,18.4,N/A,,Mostly Cloudy,40,2012-10-21 16:13:00
12:53 PM,82.9,73.9,74,29.97,10.0,NE,8.1,-,N/A,,Mostly Cloudy,50,2012-10-21 16:53:00
1:53 PM,84.0,73.9,72,29.95,10.0,NNE,11.5,19.6,N/A,,Mostly Cloudy,30,2012-10-21 17:53:00
2:10 PM,84.2,73.4,70,29.94,10.0,NE,9.2,-,N/A,,Mostly Cloudy,40,2012-10-21 18:10:00
2:53 PM,84.9,73.0,67,29.93,10.0,NE,11.5,19.6,N/A,,Clear,40,2012-10-21 18:53:00
3:53 PM,86.0,71.1,61,29.92,10.0,NE,12.7,19.6,N/A,,Partly Cloudy,40,2012-10-21 19:53:00
4:53 PM,84.9,71.1,63,29.91,10.0,NNE,11.5,19.6,N/A,,Scattered Clouds,30,2012-10-21 20:53:00
5:53 PM,84.9,71.1,63,29.92,10.0,NE,9.2,-,N/A,,Clear,50,2012-10-21 21:53:00
6:53 PM,82.9,70.0,65,29.93,10.0,NE,8.1,16.1,N/A,,Mostly Cloudy,50,2012-10-21 22:53:00
7:53 PM,82.0,70.0,67,29.95,10.0,East,11.5,-,N/A,,Mostly Cloudy,80,2012-10-21 23:53:00
8:53 PM,81.0,70.0,69,29.96,10.0,ENE,10.4,-,N/A,,Clear,70,2012-10-22 00:53:00
9:53 PM,81.0,70.0,69,29.97,10.0,East,13.8,19.6,N/A,,Partly Cloudy,80,2012-10-22 01:53:00
10:53 PM,80.1,69.1,69,29.98,10.0,ENE,12.7,18.4,N/A,,Clear,60,2012-10-22 02:53:00
11:53 PM,79.0,68.0,69,29.98,10.0,ENE,9.2,18.4,N/A,,Clear,70,2012-10-22 03:53:00